Showing default

ELEKTRO-L 3, 44903

Orbit data source: Space-Track

ELEKTRO-L 3, 44903 is a Commonwealth of Independent States-origin payload satellite in GEO that was launched on Tue, 24 Dec 2019 UTC via a PROTON-M/DM-3 launch vehicle from the Tyuratam Missile And Space Complex (TTMTR). Payload-class satellites include a variety of spacecraft equipped with specific instruments for various scientific and technological missions. These include communications satellites like Starlink; space stations such as the ISS; scientific satellites like the Hubble; Earth observation satellites from companies like Planet Labs, Umbra, and HawkEye 360; GPS; miniature CubeSats for education and research; and military/defense satellites.

Not visible in the next 10 days
Identifier
44903, 2019-095A
Orbit
GEO
Country
Flag of CISCIS
Related business
Manufacturer
Lavochkin
Mission
Operational Civil Weather
Bus & Motor
NAVIGATOR, Unknown motor
Mass
2,283 kg wet, 1,589 kg dry
Launch date (UTC)
2019-12-24 (6 years ago)
Launch vehicle
PROTON-M/DM-3
Launch site
Tyuratam Missile And Space Complex (TTMTR)
Object type
Payload
Rocket body
Debris
Shape & HBR
Box + 1 Pan + 1 Ant, Unknown HBR
Radar Cross Section
11.105 m², Large (>1 m²)

Expand to show TLE details & history
Last TLE update: 5 hours ago

TLE from 5 hours ago
0 ELEKTRO-L 3
1 44903U 19095A   25310.83576042 -.00000089  00000-0  00000+0 0  9997
2 44903   0.0743  64.7314 0002583 197.5086 160.9906  1.00270690 21475
Epoch: 2025-11-06T20:03Z
TLE epoch observation values (Epoch: 2025-11-06T20:03:29.700Z)
Latitude
0.01664°
Longitude
76.04373°
Altitude
35,796.717 km
Speed
3.074 km/s
True Right ascension
04h 12m 49s
True Declination
0° 00' 60"
Sunlit
Object was in daylight at epoch
Visualization orbit readout
Latitude
Unknown
Longitude
Unknown
Altitude
Unknown
Speed
Unknown
Apparent Right ascension
Unknown
Apparent Declination
Unknown
Sunlit
N/A
Visualization observer readout
Local Sidereal Time
21:06:53
Azimuth
Unknown
Elevation
Unknown
Doppler factor
Unknown
Orbital elements
Apogee altitude
35,798.864 km
Perigee altitude
35,777.081 km
Semi-major axis
42,166.109 km
Eccentricity
0.00026
Inclination
0.0743°
RAAN
64.7314°
Arg. of periapsis
197.5086°
True anomaly
161.00024°
Mean anomaly
160.9906°
Eccentric anomaly
160.99542°
Mean motion
0.25067 °/min
Orbital period
1,436.17 mins
BSTAR
0
Loading maneuver chart data...
Computing Atmospheric mass density...
Loading historical data...
Loading historical data...
Loading historical data...
Loading historical data...
Loading historical data...
Loading historical data...
Loading historical data...
Other satellites on launch #95 in the year 2019 (2019-12-24 UTC)

Documentation

Showing up to 5 results
|